Погода в Темире

Погода в Темире : погода сейчас, прогноз погоды и архив. Всё, что Вы хотите узнать о погоде в Темире!

Хотите узнать прогноз погоды в Темире? Тогда Вам сюда: Погода в Темире

Поиск расширенной информации на нашем сайте:

Полезная информация: матрасы ватные СПб

Другие новости

Новости СМИ2

Главная страница сайта

Новости сайта

03.07.2017

Напоминаем, что на нашем специализированном сайте Метеоцентр.Азия вы можете получить высокодетализированные автоматические прогнозы погоды по пунктам России, СНГ и мира в авиационном формате (включающие направление и скорость ветра, видимость, явления погоды, количество и форму облачности, нижнюю и верхнюю границу облачности).

Рекомендуем: Садовые домики дешевле - строительство садовых домиков. Срубы, срубы, срубы.

Погода в Темире - сегодня

Время (UTC), дата Ветер
(°,м/с) 
Видим.   Явления Облачность Т
(°С)
Тd
(°С)
f(%) Тe
(°С)
Pmin
(гПа)
dP
(гПа)
Po
(мм)
O2
(г/м3)
Тmin Tmax R s Состояние
почвы
18 14.10.17 тихо ()   н/о    ясно 
+4.5 -1.5 65 +5  1017.5  0.3  742  294    +18.2       
21 14.10.17 тихо ()   н/о    6/0 средняя, верхняя 
[Ac trans|Ci fib]
+3.6 -1.3 70 +4  1017.4  -0.2  742  295           
00 15.10.17 140 (ЮВ) н/о    9/3 600 м средняя 
[Sc|Ac trans]
+5.5 +0.1 68 +6  1016.8  -0.4  741  293           
03 15.10.17 130 (ЮВ) 20000 м    8/4 600 м средняя 
[Sc|Ac trans]
+6.3 +2.2 75 +7  1016.7  750  295           
06 15.10.17 160 (Ю) 20000 м    10/10 600 м 
[Sc]
+9.1 +6.1 81 +9  1016.1  -0.3  741  288  +3.6         
09 15.10.17 150 (ЮВ) 20000 м    8/8 600 м 
[Sc]
+15 +7.6 61 +15  1014  -1.5  740  281           
12 15.10.17 160 (Ю) 20000 м    10/10 600 м 
[Sc]
+15.8 +7.7 59 +16  1011.9  -1.9  738  280           
15 15.10.17 150 (ЮВ) н/о    8/6 600 м средняя 
[Sc|Ac trans]
+13.5 +6.7 63 +14  1010.6  -1.5  737  282    +18.3       
18 15.10.17 150 (ЮВ) н/о    10/10 600 м 
[Sc]
+12.4 +4.9 60 +12  1008.3  -2.3  736  283    +18.3       
21 15.10.17 140 (ЮВ) н/о    10/10 600 м 
[Sc]
+9.4 +4.8 73 +9  1006.1  -2.5  734  285           
00 16.10.17 150 (ЮВ) н/о  дождь  10/10 300 м 
[Frnb|Ns]
+9 +6.7 85 +8  1003.9  -2.2  732  284           
03 16.10.17 160 (Ю) 10 км  слаб. дождь  10/10 300 м 
[Frnb|Ns]
+9 +7.8 92 +8  1003.4  -0.4  732  284         
06 16.10.17 160 (Ю) 20000 м  {дождь}  10/10 600 м 
[Sc]
+9.4 +8.6 95 +9  1003.6  0.2  732  284  +0.8       
09 16.10.17 180 (Ю) 20000 м    9/4 600 м средняя 
[Sc|Ac trans]
+11.3 +6 70 +11  1003.7  0.3  732  282           
12 16.10.17 140 (ЮВ) 20000 м    9/6 600 м средняя 
[Sc|Ac trans]
+11.8 +5.9 67 +12  1003.2  -0.4  732  282           
15 16.10.17 130 (ЮВ) н/о    10/10 600 м 
[Sc]
+10.4 +6.2 75 +11  1003.7  0.3  732  283    +13.4  0.4     
18 16.10.17 180 (Ю) н/о    10/10 600 м 
[Sc]
+10.6 +6.9 78 +10  1003.1  -0.6  732  283    +13.4  0.4     
21 16.10.17 190 (Ю) н/о  слаб. ливневой дождь  10/10 300 м 
[Frnb|Ns]
+8.7 +7.9 95 +8  1003.2  -0.1  732  284           
00 17.10.17 180 (Ю) н/о  ливневой дождь  10/10 300 м 
[Frnb|Ns]
+8.1 +7.7 97 +7  1003.3  0.1  732  285           
03 17.10.17 180 (Ю) 20000 м  {дождь}  10/10 600 м 
[Sc]
+7 +6.4 96 +7  1004.1  0.7  732  287         
06 17.10.17 160 (Ю) 20000 м  {дождь}  10/10 600 м 
[Sc]
+8.2 +6.9 92 +8  1004.7  0.7  733  285  +6.9       
09 17.10.17 160 (Ю) 20000 м  {дождь}  9/9 600 м 
[Sc]
+9 +6.7 85 +8  1004.8  0.1  733  285           
12 17.10.17 200 (Ю) 20000 м  {дождь}  8/8 600 м 
[Sc]
+8.9 +4.9 76 +8  1005.3  0.5  733  285           
15 17.10.17 240 (ЮЗ) н/о    4/4 600 м 
[Sc]
+5.6 +3 83 +5  1006.9  1.2  734  289    +11.5  0.3     
18 17.10.17 280 (З) н/о    6/6 600 м 
[Sc]
+3.6 +2.6 93 +3  1006.7  -0.4  734  291    +11.5  0.3     
Время (UTC), дата Ветер
(°,м/с) 
Видим.   Явления Облачность Т
(°С)
Тd
(°С)
f(%) Тe
(°С)
Pmin
(гПа)
dP
(гПа)
Po
(мм)
O2
(г/м3)
Тmin Tmax R s Состояние
почвы

Для получения пояснительной информации подведите курсор к названию столбца.

ПОГОДА в Темире - архив

Всё, что Вы хотите узнать о погоде в Темире - удобно и подробно!

Выберите нужную дату (начиная с 1 января 2015* года) и нажмите кнопку "Найти".
Будут отображены архивные сводки погоды по пункту Темир, начиная с указанной даты.


Отображать данные в формате CSV (для использования в таблицах Excel)


Внимание! Наш архив погоды предназначен исключительно для личного некоммерческого использования в познавательных целях. Если Вам необходимы официальные справки о состоянии погоды (для производственных, юридических, коммерческих и т.п. целей), обращайтесь в органы Росгидромета.

*Примечание: данная дата относится к архиву по метеостанциям СССР (Россия, СНГ, Балтия).
Архив по метеостанциям Зарубежной Европы и Азии (кроме Китая) хранится 10 дней, по другим регионам земного шара (Китай, Африка, Америка, Австралия, Океания) - 1 день.

Темир - район местоположения метеостанции


Название, широта, долгота, высота метеостанции:
Темир 49.2°ш. 57.1°д. 234 м над ур. моря [Казахстан]

Дополнительная информация

В oтличие oт бoльшинства пoгoдных сайтoв мы публикуем пoдрoбную метеoинфoрмацию в детальнoм прoфессиoнальнoм фoрмате.

Характеристики температуры и влажнoсти вoздуха измеряются на высoте 2 м в тени вдали oт зданий и деревьев.
Скoрoсть ветра измеряется на высoте 10 м (на урoвне рoста челoвека скoрoсть ветра ниже в 1.5-2 раза). Если метеoстанция нахoдится в гoрoде или в лесу, тo скoрoсть ветра занижена на 2-4 м/с пo сравнению с oткрытым местoм. Скoрoсть ветра над акватoриями крупных рек и oзёр, а также на вершинах хoлмoв на 2-5 м/с выше, чем в oбычных услoвиях.
Атмoсфернoе давление в разных тoчках местнoсти мoжет значительнo oтличаться oт давления на метеoстанции, в зависимoсти oт услoвий рельефа (при пoдъёме на 10 м давление пoнижается примернo на 1 мм рт.ст.).